This is the latest recevied weather packets stored in our database for station/object NK2J. If no packets are shown the sender has not sent any weather packets the latest 10 day(s).
| Time | Temp. | Humidity | Pressure | Rain* | Wind** | Luminosity | Snow |
|---|---|---|---|---|---|---|---|
| 1777936660 | 25° C | 36% | 1012.7 hPa | 0 mm | - | 177 W/m² | - |
| 1777936356 | 25° C | 36% | 1012.7 hPa | 0 mm | - | 185 W/m² | - |
| 1777936052 | 25.56° C | 35% | 1012.7 hPa | 0 mm | - | 211 W/m² | - |
| 1777935751 | 25.56° C | 36% | 1013 hPa | 0 mm | - | 212 W/m² | - |
| 1777935450 | 25.56° C | 36% | 1013.1 hPa | 0 mm | - | 224 W/m² | - |
| 1777935145 | 25.56° C | 36% | 1013.1 hPa | 0 mm | - | 246 W/m² | - |
| 1777934842 | 25.56° C | 35% | 1013.1 hPa | 0 mm | - | 258 W/m² | - |
| 1777934540 | 25° C | 37% | 1013.2 hPa | 0 mm | - | 235 W/m² | - |
| 1777934236 | 25.56° C | 36% | 1013.3 hPa | 0 mm | - | 197 W/m² | - |
| 1777933932 | 25° C | 36% | 1013.2 hPa | 0 mm | - | 201 W/m² | - |
| 1777933629 | 25° C | 36% | 1013.2 hPa | 0 mm | - | 222 W/m² | - |
| 1777933326 | 25° C | 35% | 1013 hPa | 0 mm | - | 220 W/m² | - |
| 1777933023 | 25° C | 36% | 1013 hPa | 0 mm | - | 177 W/m² | - |
| 1777932720 | 25° C | 36% | 1013.2 hPa | 0 mm | - | 195 W/m² | - |
| 1777932416 | 25° C | 35% | 1013.4 hPa | 0 mm | - | 194 W/m² | - |
| 1777932114 | 25° C | 36% | 1013.5 hPa | 0 mm | - | 206 W/m² | - |
| 1777931810 | 25° C | 36% | 1013.4 hPa | 0 mm | - | 205 W/m² | - |
| 1777931508 | 25° C | 36% | 1013.7 hPa | 0 mm | - | 208 W/m² | - |
| 1777931203 | 25° C | 36% | 1013.8 hPa | 0 mm | - | 206 W/m² | - |
| 1777930900 | 25° C | 36% | 1014.1 hPa | 0 mm | - | 197 W/m² | - |
| 1777930597 | 25° C | 36% | 1014.3 hPa | 0 mm | - | 228 W/m² | - |
| 1777930293 | 25° C | 37% | 1014.4 hPa | 0 mm | - | 188 W/m² | - |
| 1777929990 | 25° C | 36% | 1014.5 hPa | 0 mm | - | 189 W/m² | - |
| 1777929687 | 25° C | 36% | 1014.5 hPa | 0 mm | - | 183 W/m² | - |
| 1777929384 | 25° C | 36% | 1014.3 hPa | 0 mm | - | 159 W/m² | - |
* Rain latest hour (hover to see other rain measurements)
** Current wind speed in m/s (hover to see current wind gust speed)